W5UOK-13 Weather Reports


time (UTC)temp
F
wind
direction
speed
knots
gust
knots
rain 1hr
in
rain 24hr
in
rain mn
in
humidity
%
barometer
mb
20260509213045 92 317 1.7 6.1 0.00 0.01 0.01 51 1008.5
20260509211548 93 117 0.9 2.6 0.00 0.01 0.01 54 1008.7
20260509210057 92 13 0.9 4.3 0.00 0.01 0.01 57 1009.0
20260509204547 92 302 2.6 7.8 0.00 0.01 0.01 56 1009.3
20260509203050 91 294 0.9 7.0 0.00 0.01 0.01 55 1009.5
20260509201549 90 13 2.6 7.0 0.00 0.01 0.01 57 1009.5
20260509200045 89 111 0.0 3.5 0.00 0.01 0.01 62 1009.5
20260509194551 89 300 0.9 5.2 0.00 0.01 0.01 61 1009.7
20260509193100 89 352 0.9 5.2 0.00 0.01 0.01 61 1009.9
20260509191606 88 288 0.9 6.1 0.00 0.01 0.01 63 1010.1
20260509184548 87 209 1.7 7.8 0.00 0.01 0.01 67 1010.4
20260509183055 87 46 1.7 9.6 0.00 0.01 0.01 67 1010.3
20260509181546 86 136 1.7 8.7 0.00 0.01 0.01 68 1010.6
20260509180043 85 119 1.7 7.8 0.00 0.01 0.01 71 1010.8
20260509174549 84 157 1.7 6.1 0.00 0.01 0.01 73 1010.9
20260509173057 84 205 0.9 7.0 0.00 0.01 0.01 70 1011.0
20260509171601 84 268 1.7 7.8 0.00 0.01 0.01 72 1011.0
20260509170048 83 0 0.9 8.7 0.00 0.01 0.01 76 1011.0
20260509164551 81 218 0.9 7.0 0.00 0.01 0.01 82 1011.3
20260509163052 79 186 2.6 6.1 0.00 0.01 0.01 83 1011.6
20260509161547 78 237 1.7 6.1 0.00 0.01 0.01 85 1011.8
20260509160048 78 290 1.7 6.1 0.00 0.01 0.01 85 1011.8
20260509154550 78 160 1.7 5.2 0.00 0.01 0.01 86 1011.7
20260509153052 77 247 2.6 5.2 0.00 0.01 0.01 90 1011.5
20260509151543 75 145 0.0 1.7 0.00 0.01 0.01 95 1011.4
20260509150044 74 209 0.0 0.0 0.00 0.01 0.01 96 1011.2
20260509144551 73 0 0.0 0.0 0.00 0.01 0.01 96 1011.2
20260509143050 73 0 0.0 0.9 0.00 0.01 0.01 96 1011.3
20260509141551 72 256 0.0 2.6 0.00 0.01 0.01 96 1011.5
20260509140046 72 302 0.0 1.7 0.00 0.01 0.01 96 1011.7
20260509134556 72 261 0.9 2.6 0.00 0.01 0.01 96 1011.5
20260509133045 72 281 0.9 1.7 0.00 0.01 0.01 96 1011.0
20260509131602 72 222 0.9 4.3 0.00 0.01 0.01 96 1010.2
20260509130059 72 117 1.7 4.3 0.01 0.01 0.01 96 1010.2
20260509124549 72 153 0.9 3.5 0.01 0.01 0.01 96 1009.8
20260509123051 71 166 2.6 6.1 0.01 0.01 0.01 96 1009.9
20260509121550 71 123 1.7 6.1 0.01 0.01 0.01 96 1009.7
20260509120047 71 150 0.9 7.8 0.00 0.00 0.00 96 1009.7
20260509114604 71 148 0.9 3.5 0.00 0.00 0.00 96 1010.0
20260509113053 71 165 0.9 3.5 0.00 0.00 0.00 96 1010.3
20260509111549 71 132 0.0 1.7 0.00 0.00 0.00 96 1010.3
20260509110103 71 0 0.0 0.0 0.00 0.00 0.00 96 1010.6
20260509104557 71 0 0.0 2.6 0.00 0.00 0.00 96 1010.8
20260509103051 71 270 0.0 0.9 0.00 0.00 0.00 96 1010.7
20260509101549 71 202 0.9 2.6 0.00 0.00 0.00 95 1010.3
20260509100044 71 0 0.0 3.5 0.00 0.00 0.00 95 1010.2
20260509094549 71 157 0.0 1.7 0.00 0.00 0.00 95 1010.0
20260509093049 71 0 0.0 1.7 0.00 0.00 0.00 95 1010.5
20260509091546 71 0 0.0 1.7 0.00 0.00 0.00 95 1011.0
20260509090100 71 0 0.0 0.0 0.00 0.00 0.00 95 1011.0
20260509084557 71 0 0.0 0.0 0.00 0.00 0.00 95 1011.0
20260509083049 71 0 0.0 0.0 0.00 0.00 0.00 94 1011.0
20260509081546 71 0 0.0 6.1 0.00 0.00 0.00 94 1010.9
20260509080043 71 138 0.0 0.9 0.00 0.00 0.00 94 1011.0
20260509074552 71 0 0.0 1.7 0.00 0.00 0.00 93 1011.4
20260509073047 71 0 0.0 1.7 0.00 0.00 0.00 93 1011.6
20260509071547 71 0 0.0 1.7 0.00 0.00 0.00 93 1011.6
20260509070049 71 306 0.0 0.0 0.00 0.00 0.00 92 1011.7
20260509064545 71 0 0.0 0.0 0.00 0.00 0.00 92 1011.5
20260509063047 71 0 0.0 1.7 0.00 0.00 0.00 91 1011.4
20260509061554 71 0 0.0 2.6 0.00 0.00 0.00 92 1011.0
20260509060048 71 175 1.7 5.2 0.00 0.00 0.00 92 1010.5
20260509054609 71 0 1.7 7.8 0.00 0.00 0.00 92 1010.3
20260509053140 71 201 2.6 7.8 0.00 0.00 0.00 92 1010.4
20260509051554 71 146 0.9 7.8 0.00 0.00 0.00 92 1010.7
20260509050052 71 0 1.7 6.1 0.00 0.00 0.00 92 1010.9
20260509044549 71 157 0.9 2.6 0.00 0.00 0.00 91 1010.7
20260509043056 71 128 0.9 5.2 0.00 0.00 0.00 91 1010.6
20260509041548 71 156 0.9 3.5 0.00 0.00 0.00 91 1010.3
20260509040111 71 167 1.7 7.0 0.00 0.00 0.00 91 1010.2
20260509034609 71 179 0.9 4.3 0.00 0.00 0.00 91 1010.2
20260509033054 71 119 1.7 4.3 0.00 0.00 0.00 90 1009.9
20260509031552 72 165 0.9 3.5 0.00 0.00 0.00 90 1009.8
20260509030101 72 150 0.9 3.5 0.00 0.00 0.00 89 1009.8
20260509024546 72 119 0.9 2.6 0.00 0.00 0.00 88 1009.5
20260509023053 72 149 0.9 3.5 0.00 0.00 0.00 88 1009.7
20260509021556 73 205 0.0 4.3 0.00 0.00 0.00 87 1009.5
20260509020053 73 115 0.9 5.2 0.00 0.00 0.00 86 1009.5
20260509014546 73 137 0.9 3.5 0.00 0.00 0.00 86 1009.5
20260509013104 73 140 0.9 3.5 0.00 0.00 0.00 86 1009.4
20260509011549 74 123 0.9 3.5 0.00 0.00 0.00 85 1009.5
20260509010048 74 153 0.0 2.6 0.00 0.00 0.00 85 1009.6
20260509004547 74 134 0.9 2.6 0.00 0.00 0.00 84 1009.3
20260509003111 75 91 0.9 6.1 0.00 0.00 0.00 83 1009.2
20260509001546 75 107 1.7 7.8 0.00 0.00 0.00 82 1009.2
20260509000106 76 130 2.6 7.0 0.00 0.00 0.00 81 1009.3
20260508234551 76 110 1.7 8.7 0.00 0.00 0.00 80 1009.5
20260508233054 78 158 3.5 9.6 0.00 0.00 0.00 77 1009.4
20260508231549 79 123 3.5 7.0 0.00 0.00 0.00 76 1009.6
20260508230048 78 94 0.9 6.1 0.00 0.00 0.00 78 1009.7
20260508224603 77 115 0.9 3.5 0.00 0.00 0.00 78 1009.9
20260508223052 78 0 0.0 1.7 0.00 0.00 0.00 77 1010.0
20260508221551 79 109 0.0 1.7 0.00 0.00 0.00 76 1010.0
20260508220049 79 48 0.0 1.7 0.00 0.00 0.00 73 1010.2
20260508214553 79 0 0.0 1.7 0.00 0.00 0.00 76 1010.2